Montpellier, France

9:42 AM CET on December 13, 2017 (GMT +0100)
Montpellier / Mediterranee

Weather History for LFMT - September, 2013

Change the Weather History Date:

Friday, September 13, 2013

  Actual Average Record
Temperature  
Mean Temperature 69 °F -  
Max Temperature 82 °F 71 °F 89 °F (2011)
Min Temperature 56 °F 56 °F 53 °F (2001)
Cooling Degree Days 4    
Growing Degree Days 19 (Base 50)    
Moisture  
Dew Point 50 °F    
Average Humidity 51    
Maximum Humidity 72    
Minimum Humidity 23    
Precipitation  
Precipitation 0.00 in - - ()
Sea Level Pressure  
Sea Level Pressure 30.13 in    
Wind  
Wind Speed 8 mph ()    
Max Wind Speed 14 mph    
Max Gust Speed -    
Visibility 6.2 miles    
Events      
Averages and records for this station are not official NWS values.
T = Trace of Precipitation, MM = Missing Value Source: Averaged Metar Reports

Daily Weather History Graph

Daily Weather History Graph

Search for Another Location

Airport or City:

Trip Planner

Search our weather history database for the weather conditions in past years. The results will help you decide how hot, cold, wet, or windy it might be!

Date:

Astronomy

Sep. 13, 2013 Rise Set
Actual Time 7:21 AM CEST 7:57 PM CEST
Civil Twilight 6:52 AM CEST 8:26 PM CEST
Nautical Twilight 6:18 AM CEST 9:00 PM CEST
Astronomical Twilight 5:42 AM CEST 9:36 PM CEST
Moon 3:41 PM CEST 12:27 AM CEST
Length of Visible Light 13h 34m
Length of Day
12h 36m
First Quarter, 58% of the Moon is Illuminated
Sep 13
First Quarter
Sep 19
Full
Sep 27
Last Quarter
Oct 5
New
Oct 12
First Quarter

Hourly Weather History & Observations

Time (CEST) Temp. Heat Index Dew Point Humidity Pressure Visibility Wind Dir Wind Speed Gust Speed Precip Events Conditions
12:00 AM 64.4 °F - 50.0 °F 59% 30.15 in - WNW 13.8 mph - N/A   Clear
12:30 AM 64.4 °F - 50.0 °F 59% 30.15 in - WNW 11.5 mph - N/A   Clear
1:00 AM 62.6 °F - 50.0 °F 63% 30.15 in - West 10.4 mph - N/A   Clear
1:30 AM 62.6 °F - 50.0 °F 63% 30.15 in 6.2 mi West 12.7 mph - N/A   Unknown
2:00 AM 62.6 °F - 50.0 °F 63% 30.12 in 6.2 mi WNW 12.7 mph - N/A   Unknown
2:30 AM 62.6 °F - 50.0 °F 63% 30.12 in 6.2 mi WNW 12.7 mph - N/A   Unknown
3:00 AM 60.8 °F - 48.2 °F 63% 30.12 in 6.2 mi NW 11.5 mph - N/A   Unknown
3:30 AM 62.6 °F - 50.0 °F 63% 30.12 in 6.2 mi WNW 11.5 mph - N/A   Unknown
4:00 AM 62.6 °F - 48.2 °F 59% 30.12 in 6.2 mi NW 10.4 mph - N/A   Unknown
4:30 AM 62.6 °F - 48.2 °F 59% 30.12 in 6.2 mi NW 9.2 mph - N/A   Unknown
5:00 AM 59.0 °F - 48.2 °F 67% 30.12 in - WNW 5.8 mph - N/A   Clear
5:30 AM 57.2 °F - 48.2 °F 72% 30.12 in - Variable 3.5 mph - N/A   Clear
6:00 AM 57.2 °F - 48.2 °F 72% 30.12 in - West 4.6 mph - N/A   Clear
6:30 AM 57.2 °F - 48.2 °F 72% 30.12 in - West 6.9 mph - N/A   Clear
7:00 AM 57.2 °F - 48.2 °F 72% 30.12 in - West 4.6 mph - N/A   Clear
7:30 AM 57.2 °F - 48.2 °F 72% 30.15 in - West 8.1 mph - N/A   Clear
8:00 AM 59 °F - 48 °F 58% 30.17 in 47 mi West 8.1 mph - -   Clear
8:00 AM 59.0 °F - 48.2 °F 67% 30.15 in - West 8.1 mph - N/A   Clear
8:30 AM 60.8 °F - 48.2 °F 63% 30.15 in - NW 8.1 mph - N/A   Clear
9:00 AM 64.4 °F - 50.0 °F 59% 30.15 in - WNW 9.2 mph - N/A   Clear
9:30 AM 66.2 °F - 50.0 °F 56% 30.15 in - NW 12.7 mph - N/A   Clear
10:00 AM 68.0 °F - 50.0 °F 52% 30.15 in - NW 10.4 mph - N/A   Clear
10:30 AM 71.6 °F - 50.0 °F 46% 30.18 in - WNW 8.1 mph - N/A   Clear
11:00 AM 71.6 °F - 50.0 °F 46% 30.18 in - NNW 8.1 mph - N/A   Clear
11:30 AM 73.4 °F - 46.4 °F 38% 30.18 in - North 9.2 mph - N/A   Clear
12:00 PM 73.4 °F - 48.2 °F 41% 30.18 in - NNW 9.2 mph - N/A   Clear
12:30 PM 75.2 °F - 48.2 °F 38% 30.15 in - NNW 9.2 mph - N/A   Clear
1:00 PM 77.0 °F - 48.2 °F 36% 30.15 in - NW 9.2 mph - N/A   Clear
1:35 PM 77.0 °F - 48.2 °F 36% 30.15 in - NW 8.1 mph - N/A   Clear
2:00 PM 77 °F - 47 °F 23% 30.16 in 47 mi NNW 10.4 mph - -   Scattered Clouds
2:00 PM 78.8 °F - 48.2 °F 34% 30.15 in - North 10.4 mph - N/A   Clear
2:30 PM 78.8 °F - 48.2 °F 34% 30.12 in - North 11.5 mph - N/A   Clear
3:00 PM 80.6 °F - 48.2 °F 32% 30.12 in - North 8.1 mph - N/A   Clear
3:30 PM 80.6 °F - 46.4 °F 30% 30.12 in - North 9.2 mph - N/A   Clear
4:00 PM 82.4 °F - 44.6 °F 26% 30.12 in - NW 4.6 mph - N/A   Clear
4:30 PM 80.6 °F 80.3 °F 53.6 °F 39% 30.12 in - South 10.4 mph - N/A   Clear
5:00 PM 77.0 °F - 51.8 °F 41% 30.09 in - SSW 9.2 mph - N/A   Clear
5:30 PM 77.0 °F - 51.8 °F 41% 30.09 in - SSW 8.1 mph - N/A   Clear
6:00 PM 75.2 °F - 51.8 °F 44% 30.09 in - SSE 6.9 mph - N/A   Clear
6:30 PM 75.2 °F - 53.6 °F 47% 30.09 in - South 6.9 mph - N/A   Clear
7:00 PM 75.2 °F - 51.8 °F 44% 30.09 in - South 5.8 mph - N/A   Clear
7:30 PM 73.4 °F - 53.6 °F 50% 30.09 in - South 3.5 mph - N/A   Clear
8:00 PM 71 °F - 52 °F 41% 30.11 in 47 mi West 2.3 mph - -   Scattered Clouds
8:00 PM 71.6 °F - 51.8 °F 50% 30.09 in - West 2.3 mph - N/A   Clear
8:30 PM 71.6 °F - 51.8 °F 50% 30.12 in - NNW 4.6 mph - N/A   Clear
9:00 PM 71.6 °F - 50.0 °F 46% 30.12 in - WNW 5.8 mph - N/A   Clear
9:30 PM 73.4 °F - 50.0 °F 44% 30.15 in - Variable 3.5 mph - N/A   Clear
10:00 PM 68.0 °F - 50.0 °F 52% 30.15 in - ENE 1.2 mph - N/A   Clear
10:30 PM 68.0 °F - 51.8 °F 56% 30.15 in - NNE 5.8 mph - N/A   Clear
11:00 PM 66.2 °F - 50.0 °F 56% 30.15 in - NNW 4.6 mph - N/A   Clear
11:30 PM 68.0 °F - 50.0 °F 52% 30.15 in - NNW 3.5 mph - N/A   Clear